Regional Weather Roundup
Issued by NWS New Orleans/Baton Rouge, LA

Home | Current Version | Previous Version | Text Only | Print | Product List | Glossary On
Versions: 1 2 3 4 5 6 7 8 9 10 11 12 13 14 15 16 17 18 19 20 21 22 23 24 25 26 27 28 29 30 31 32 33 34 35 36 37 38 39 40 41 42 43 44 45 46 47 48 49 50
740
ASUS44 KLIX 170413
RWRLIX
NEW ORLEANS REGIONAL WEATHER ROUNDUP
NATIONAL WEATHER SERVICE NEW ORLEANS LA
1000 PM CST MON JAN 16 2017

NOTE: "FAIR" INDICATES FEW OR NO CLOUDS BELOW 12,000 FEET WITH NO
      SIGNIFICANT WEATHER AND/OR OBSTRUCTIONS TO VISIBILITY.
      SKY/WX - SKY CONDITION AND SIGNIFICANT WEATHER.
      TMP - AIR TEMPERATURE.     DP    - DEWPOINT TEMPERATURE.
      RH  - RELATIVE HUMIDITY.   PRES  - PRESSURE.
      HI  - HEAT INDEX.          WCI   - WIND CHILL INDEX.

*  THESE STATIONS ARE NOT NWS OR FAA STATIONS AND ARE NOT UNDER
   NWS QUALITY CONTROL.

LAZ038-040-048-061>063-065>067-069-170500-
SOUTHEAST LOUISIANA

CITY           SKY/WX    TMP DP  RH WIND       PRES   REMARKS
N.O. AUDUBON   NOT AVBL
N.O. INTL ARPT MOCLDY    69  66  90 SE10      30.12F
N.O. LAKEFRONT CLOUDY    67  67 100 SE8       30.13F
N.O. DOWNTOWN*   N/A     68  66  93 S5        30.13F
RESERVE*         N/A     68  67  94 SE6       30.11F
SLIDELL        MOCLDY    67  66  97 SE10      30.12F
BATON ROUGE    CLOUDY    70  67  90 SE8       30.10S
BOOTHVILLE     CLOUDY    67  67 100 SE9       30.15F
BELLE CHASSE   CLOUDY    68  67  96 SE7       30.12F
BOGALUSA*      CLOUDY    70  65  84 S8        30.14F
GALLIANO*      CLOUDY    69  65  89 SE7       30.12F
NEW ROADS*     CLOUDY    68  66  93 S7        30.10R
GONZALES*      CLOUDY    69  67  93 CALM      30.10F
HAMMOND*       CLOUDY    64  61  88 SE5       30.12F
HOUMA*         CLOUDY    69  68  94 SE10      30.12S
PORT FOURCHON* CLEAR     70  68  94 SE9G15    30.12F

$$

MSZ070-080>082-170500-
SOUTHERN MISSISSIPPI

CITY           SKY/WX    TMP DP  RH WIND       PRES   REMARKS
MCCOMB         CLOUDY    68  64  87 S9        30.12R
GULFPORT       MOCLDY    66  65  96 SE9       30.14F
BILOXI         MOCLDY    68  68 100 SE9       30.14F
PASCAGOULA     MOCLDY    68  65  90 SE7       30.17S

$$

COASTAL OBSERVATIONS
LAKE AND NEARSHORE STATIONS

STATION/POSITION TIME  TEMP    WIND        PRES    WAVE
                       AIR SEA DIR/SP/G            HT/PER
                 (UTC) (F)     (DEG/KT/KT) (MB)    (FT/S)
PASCAGOULA       0348   67     120/  8/ 11 1021.0
WAVELAND YACHT   0348   65 63  150/ 10/ 14 1020.6
GRAND ISLE       0348   68 66  160/  6/ 10 1020.1
SOUTHWEST PASS   0342          140/  9/ 11   N/A
NEW CANAL        0342   68 57  140/  2/  4 1019.4
SHELL BEACH      0342   68 65  140/ 10/ 12 1020.3

OFFSHORE STATIONS

STATION/POSITION TIME  TEMP    WIND        PRES    WAVE
                       AIR SEA DIR/SP/G            HT/PER
                 (UTC) (F)     (DEG/KT/KT) (MB)    (FT/S)

$$





USA.gov is the U.S. government's official web portal to all federal, state and local government web resources and services.